RH
60 84 95 76 73 71 73 64 49 55 60 52 32 17 13 10 9 8 12 14 17 21 23 23 23 20 30 64 67 70 74 76 86 82 80 61 60 66 66 67 67 67 68
57 72 74 74 75 76 76 54 56 65 61 38 19 14 9 10 11 14 17 21 22 19 17 17 22 26 55 48 47 49 57 66 77 72 58 38 33 54 54 52 53 57 60
60 80 81 78 75 79 67 55 67 68 48 22 17 10 11 12 16 20 22 21 17 17 17 18 25 47 45 49 41 40 67 72 63 60 44 40 26 28 36 45 48 51 54
55 83 89 90 85 80 57 68 74 60 28 19 12 13 13 17 21 22 20 17 18 22 24 27 28 42 39 51 50 53 52 57 58 48 46 47 40 25 27 28 35 44 50
88 97 99 86 83 62 69 78 68 35 23 15 12 14 17 21 20 20 18 19 23 26 30 32 33 32 32 45 52 53 58 61 60 58 57 53 47 37 29 27 32 31 34
88 88 88 80 64 69 80 75 44 26 19 12 15 18 22 19 19 19 20 24 27 28 31 34 33 33 33 33 47 51 51 51 62 54 49 48 47 45 41 34 29 30 35
91 87 83 70 73 83 79 52 32 24 14 16 18 23 22 19 20 21 24 28 29 31 32 33 34 38 41 39 40 46 46 46 52 51 51 49 46 48 47 44 35 31 35
100 98 83 84 89 80 55 37 28 20 16 20 24 25 20 20 22 24 27 29 31 32 34 34 37 42 47 46 45 50 52 50 48 50 56 57 56 54 52 47 38 28 37
96 97 100 100 85 56 42 31 24 18 22 25 26 22 21 22 23 26 29 31 33 34 36 38 40 47 52 53 54 56 59 58 52 53 56 59 60 59 56 49 41 26 31
100 89 78 66 56 54 39 29 22 24 29 28 26 23 23 23 25 27 30 33 36 40 44 48 51 57 60 63 64 60 61 59 51 50 53 57 59 58 54 51 42 34 24
92 80 73 70 66 56 33 28 25 33 30 28 27 25 25 25 31 31 33 39 46 48 60 60 63 63 67 67 66 64 56 50 45 44 43 55 54 54 51 49 45 37 29
86 67 65 74 74 41 31 26 30 34 31 34 37 32 36 51 52 71 70 74 71 72 67 66 67 70 70 69 69 58 50 47 46 44 36 49 53 50 43 40 45 44 40
70 76 87 66 62 40 31 32 42 44 61 51 62 66 59 70 72 81 79 74 71 71 71 73 71 70 71 71 56 48 45 45 46 42 39 51 45 42 49 40 55 53 47
79 86 69 73 50 38 32 38 40 46 70 64 74 80 75 86 86 88 83 78 74 71 73 77 75 72 70 50 45 40 33 39 44 41 36 42 42 41 42 53 57 64 66
71 76 76 65 38 35 37 52 61 70 53 51 82 82 87 83 81 83 79 78 78 77 78 75 72 60 47 40 27 23 23 31 33 35 30 35 39 40 50 59 71 78 79
77 82 90 72 54 35 58 68 72 65 57 59 61 80 86 79 83 80 80 81 81 79 77 74 54 47 38 21 17 18 25 31 38 38 32 39 43 56 60 58 58 66 69
79 83 79 64 61 66 73 78 77 67 78 84 78 69 73 79 83 80 80 83 82 81 74 52 48 40 22 19 22 24 29 30 32 30 28 41 57 62 59 58 57 57 56
85 79 74 67 60 70 74 75 79 82 83 78 76 82 80 71 65 74 87 89 79 68 50 51 48 30 27 33 32 34 38 39 30 47 44 45 57 55 58 57 56 56 57
63 65 72 67 62 79 84 85 84 83 78 78 75 65 60 61 66 79 86 71 51 47 53 53 43 28 31 33 36 44 50 49 36 51 49 54 55 53 56 57 56 55 54
59 43 28 49 65 84 86 81 78 78 73 64 55 57 64 66 67 65 55 48 46 53 57 54 37 31 37 32 44 59 52 41 52 42 45 51 54 52 50 50 51 50 51
60 49 30 38 62 72 79 72 70 69 69 62 65 66 70 67 56 46 45 47 54 60 59 48 40 42 30 27 30 29 28 50 53 54 57 54 53 53 48 47 44 49 54
55 56 51 47 50 58 65 61 68 69 72 77 76 75 72 63 49 44 49 56 59 59 52 47 47 39 34 36 35 36 57 53 59 68 68 69 69 62 59 51 52 52 52
59 58 62 65 63 66 75 75 72 76 78 73 72 76 68 56 52 53 58 61 58 54 51 48 44 48 58 59 53 65 69 70 71 72 81 77 69 69 63 60 61 58 55
57 63 68 74 75 76 76 74 75 76 62 63 66 64 52 52 58 67 65 62 58 54 50 48 53 63 68 48 32 37 47 55 80 85 84 87 81 77 66 60 68 64 56
57 65 72 83 86 83 81 83 86 77 67 58 50 55 60 64 73 69 66 61 58 57 57 60 64 65 48 20 32 44 53 64 79 93 88 91 83 79 71 61 62 61 57
65 66 67 84 86 88 91 83 80 66 55 56 62 66 72 80 74 70 70 67 58 60 62 62 51 23 12 17 26 41 58 72 77 80 85 100 100 81 76 73 78 67 54
Wind_Speed
29 29 29 32 29 26 24 23 22 20 19 16 15 15 17 17 19 20 20 20 20 21 21 22 22 22 23 23 20 17 17 17 19 21 21 22 19 16 16 14 14 14 13
34 32 33 33 30 27 24 23 21 19 18 16 16 17 19 19 19 20 20 21 22 23 25 25 25 25 25 22 20 17 16 14 17 19 21 22 19 16 15 14 14 13 13
35 34 34 32 31 27 25 24 21 19 17 17 17 19 20 19 19 20 21 22 25 27 29 29 28 27 25 25 25 24 24 20 18 20 22 23 23 19 15 14 12 12 12
36 36 36 35 30 27 25 23 20 19 18 18 19 20 21 19 20 22 23 25 26 27 28 29 29 26 23 25 28 25 21 20 18 18 19 21 23 22 18 16 13 11 11
35 35 34 33 30 27 24 21 19 19 18 19 20 19 20 20 22 23 24 25 25 25 26 26 26 26 21 21 24 24 19 16 17 19 19 20 21 23 22 18 15 13 12
35 34 34 33 30 26 23 19 18 19 18 19 20 20 20 22 23 24 24 23 24 23 22 21 21 20 20 20 18 19 19 17 16 18 18 19 21 20 20 21 17 13 12
37 37 33 30 29 25 22 19 18 17 19 19 20 20 20 23 24 23 22 21 21 19 18 17 16 16 15 14 16 16 17 14 11 16 18 19 20 21 21 22 20 15 11
32 30 29 27 25 23 19 17 17 18 20 21 20 20 21 23 23 21 20 18 17 15 14 12 11 11 11 12 11 13 14 13 12 14 17 19 19 20 21 22 20 14 10
23 23 26 27 22 16 16 17 17 18 20 20 20 21 21 20 19 17 16 14 13 11 10 8 8 9 8 9 11 11 10 12 13 14 14 16 19 21 22 21 19 14 11
27 28 28 39 29 12 14 17 18 19 20 21 20 20 19 18 15 13 12 10 9 9 8 7 8 8 7 9 11 12 13 12 16 14 13 14 17 22 23 22 20 19 16
22 21 28 26 23 19 19 18 19 20 21 20 20 19 18 16 14 11 9 8 9 7 6 5 4 3 4 9 12 15 16 16 16 16 15 15 16 18 21 21 21 19 17
27 25 25 21 24 24 22 21 22 22 21 21 17 17 15 14 11 12 13 12 9 7 4 1 2 3 7 9 11 15 16 17 16 18 15 14 16 18 20 24 22 19 18
31 28 28 25 23 23 24 23 23 23 22 18 16 14 13 10 11 10 10 6 4 3 2 3 3 6 8 9 12 13 15 15 16 17 12 10 13 15 13 22 18 19 19
28 26 23 23 22 22 22 23 23 23 21 18 15 13 11 11 9 12 11 8 6 4 4 4 6 8 10 12 12 13 14 14 15 16 12 11 14 16 15 16 14 14 17
27 25 25 22 23 22 23 24 24 22 18 17 14 13 12 11 8 9 9 8 9 6 6 9 9 10 11 12 12 11 12 13 13 12 15 15 16 16 13 10 7 7 10
29 29 28 23 20 24 25 24 22 19 16 14 14 14 13 12 11 9 7 9 9 9 10 10 10 11 12 13 11 11 10 12 15 15 14 14 10 8 10 12 13 10 11
28 28 29 24 27 27 25 23 19 17 18 17 15 13 15 13 11 12 10 10 9 9 8 9 10 11 13 12 14 13 13 16 17 17 15 10 7 3 5 7 9 12 13
34 32 31 29 29 26 25 22 22 21 21 18 16 16 12 10 11 13 10 9 7 8 8 10 12 15 15 18 19 18 16 13 18 12 11 7 3 2 4 7 11 11 12
33 35 35 32 30 25 25 25 24 24 21 17 15 12 8 7 8 9 9 8 7 8 9 11 16 18 18 20 20 18 16 20 13 8 10 6 3 4 4 5 8 10 13
30 29 33 33 32 29 28 27 25 22 20 17 15 11 8 8 10 10 10 9 8 7 9 14 16 16 18 20 20 18 24 23 2 19 13 12 13 13 15 17 19 20 17
32 29 30 32 35 31 29 26 25 24 23 21 18 13 11 11 11 11 9 8 7 8 12 15 14 16 18 22 25 28 31 10 22 10 8 17 21 24 26 25 21 17 12
32 29 27 28 29 29 27 26 25 22 22 20 17 16 15 14 12 11 8 7 10 11 14 14 17 19 22 23 26 28 13 27 6 23 23 15 28 22 22 19 16 16 19
37 31 26 24 25 26 26 26 25 22 20 21 18 18 17 15 11 8 8 10 12 14 15 17 21 24 25 26 25 18 13 9 32 24 24 23 16 25 22 19 21 20 20
38 34 30 27 26 24 28 29 26 24 23 18 16 16 16 14 10 9 13 12 13 16 18 22 24 24 26 28 25 21 20 22 24 25 19 23 24 20 19 21 23 22 22
40 37 32 29 25 22 29 27 22 22 18 15 18 18 16 14 13 12 11 11 16 18 19 20 22 25 29 28 26 25 24 23 23 25 31 27 24 22 20 20 22 23 24
37 34 29 26 20 21 27 23 18 18 19 20 21 20 17 18 16 16 15 16 18 18 19 21 25 27 27 27 25 23 22 22 21 24 28 26 25 26 18 19 18 21 23
Wind_Direction
172 163 159 159 159 157 154 149 143 137 132 124 115 106 105 104 104 100 95 91 86 84 80 81 82 83 82 78 70 71 66 63 64 63 60 49 43 48 52 46 44 44 38
166 165 162 163 161 160 155 148 143 136 130 123 113 111 108 107 103 98 93 89 86 85 83 82 85 89 85 67 56 58 63 67 65 55 42 36 31 40 43 45 38 37 35
165 164 164 163 162 159 156 150 144 138 131 122 117 114 111 111 103 97 95 93 92 91 88 85 88 91 79 60 63 65 70 69 51 47 39 30 32 31 31 34 33 36 35
167 165 166 163 156 155 154 147 144 138 130 124 121 119 115 111 105 101 99 99 97 94 91 88 87 91 82 62 63 67 64 59 57 43 39 34 27 26 25 25 23 24 27
166 166 162 157 155 154 151 147 143 135 130 126 123 119 115 109 106 105 104 103 99 94 92 89 87 88 90 75 64 67 66 61 49 35 28 25 22 25 24 17 15 20 18
166 163 159 155 153 151 147 142 142 135 132 128 124 122 117 115 112 110 107 102 96 92 89 85 80 78 78 81 60 60 59 50 46 34 21 16 13 11 9 9 6 4 6
167 158 153 151 150 146 142 142 139 135 130 128 125 123 121 118 115 112 107 101 95 92 87 82 74 65 62 64 73 48 44 39 24 19 13 5 1 354 356 356 355 354 355
143 141 143 145 141 135 133 137 141 137 134 132 127 124 124 119 117 115 109 102 99 93 85 78 69 65 63 55 50 52 35 30 11 8 6 3 357 347 346 347 350 347 340
136 134 127 118 120 121 145 145 140 138 133 129 128 129 125 121 118 115 110 106 100 93 86 78 67 58 48 41 32 31 23 14 1 353 353 352 348 340 338 342 345 345 338
135 131 126 115 128 155 152 146 145 143 135 130 130 127 123 118 116 115 108 103 94 88 81 72 65 56 41 17 5 4 360 355 350 347 340 334 333 331 332 338 341 340 336
138 109 130 129 137 170 165 151 148 140 134 136 136 130 128 128 120 117 110 103 101 94 86 73 68 49 10 351 347 346 342 345 347 343 341 337 333 329 331 335 335 337 337
149 141 150 159 179 172 163 158 153 146 145 144 135 132 137 131 116 111 112 111 103 125 135 64 15 353 343 335 339 334 335 337 339 335 338 341 332 328 328 330 329 332 334
148 162 170 176 180 174 161 155 152 147 144 142 149 141 134 131 132 129 127 137 156 198 231 272 314 325 318 330 334 330 331 328 329 332 332 329 330 330 331 325 324 331 329
166 169 173 182 177 170 162 160 157 155 154 156 161 160 152 150 151 160 170 173 197 221 247 240 287 301 317 330 333 326 319 317 323 327 316 323 322 324 321 317 321 337 330
175 170 170 172 170 168 166 160 157 163 171 174 170 177 178 182 181 183 185 199 203 212 236 275 298 312 319 327 322 318 313 312 317 320 310 305 314 317 315 308 333 1 334
177 176 177 171 167 169 166 168 171 176 177 183 186 193 196 200 206 204 217 225 232 247 269 295 311 321 327 329 337 339 330 329 329 322 312 309 325 333 305 303 310 326 342
175 177 176 168 167 170 175 180 186 184 191 194 204 209 211 209 209 234 237 235 239 265 281 300 309 323 330 339 348 342 336 334 334 330 321 301 323 287 297 300 309 312 317
175 175 177 178 182 185 189 189 193 195 202 208 209 210 211 220 230 235 238 241 260 276 292 303 319 334 346 349 349 344 347 350 344 329 334 307 249 61 349 320 323 325 324
182 190 193 193 188 190 188 190 197 203 211 211 212 210 212 223 221 218 221 233 252 272 294 310 330 344 343 340 341 342 340 336 343 318 318 307 303 323 311 335 330 325 322
183 188 189 190 191 193 194 199 205 211 219 219 217 233 257 219 206 204 218 235 270 286 305 328 334 335 336 338 337 336 329 337 288 327 311 286 288 305 310 305 305 307 315
189 188 191 191 193 198 201 206 212 220 221 228 242 243 233 215 212 223 238 267 285 310 324 327 328 328 333 335 332 323 330 334 319 326 314 309 301 307 313 313 310 302 297
196 197 198 200 202 204 209 212 212 220 232 241 241 237 208 212 223 240 266 303 311 310 316 317 322 327 330 330 329 326 330 316 330 314 317 318 313 307 310 304 297 296 298
203 204 208 208 207 210 210 208 214 218 228 227 213 202 204 216 226 251 282 291 299 308 309 315 323 323 322 322 321 321 323 298 311 312 312 313 307 307 303 297 292 296 302
210 208 209 210 208 212 210 216 223 229 219 214 211 208 217 226 241 264 286 287 287 297 303 309 312 314 313 312 310 307 301 304 304 307 307 306 307 305 290 291 291 296 302
208 208 209 208 213 212 209 217 217 217 223 214 203 211 220 226 226 246 253 262 281 288 292 297 300 301 304 305 306 306 303 300 304 301 309 306 295 296 291 293 289 287 292
205 208 216 214 214 217 216 211 211 210 205 208 211 215 216 216 223 234 238 258 273 276 279 286 295 300 299 299 298 298 300 301 298 296 302 298 303 308 299 300 293 295 299